| time (UTC) | temp F | wind direction | speed MPH | gust MPH | rain 1hr in | rain 24hr in | rain mn in | humidity % | barometer mb |
| 20260509064536 | 59 | 246 | 5.0 | 13.0 | 0.00 | 0.00 | 0.00 | 62 | 1024.5 |
| 20260509061536 | 57 | 243 | 5.0 | 14.0 | 0.00 | 0.00 | 0.00 | 66 | 1024.5 |
| 20260509060037 | 56 | 222 | 1.0 | 5.0 | 0.00 | 0.00 | 0.00 | 67 | 1024.4 |
| 20260509054534 | 56 | 212 | 2.0 | 5.0 | 0.00 | 0.00 | 0.00 | 67 | 1024.3 |
| 20260509044535 | 59 | 241 | 4.0 | 8.0 | 0.00 | 0.00 | 0.00 | 60 | 1023.9 |
| 20260509043037 | 60 | 248 | 5.0 | 11.0 | 0.00 | 0.00 | 0.00 | 60 | 1023.8 |
| 20260509041536 | 60 | 257 | 4.0 | 7.0 | 0.00 | 0.00 | 0.00 | 59 | 1023.7 |
| 20260509040031 | 60 | 261 | 4.0 | 12.0 | 0.00 | 0.00 | 0.00 | 57 | 1023.5 |
| 20260509034531 | 60 | 265 | 4.0 | 10.0 | 0.00 | 0.00 | 0.00 | 56 | 1023.2 |
| 20260509030108 | 62 | 250 | 3.0 | 7.0 | 0.00 | 0.00 | 0.00 | 53 | 1022.7 |
| 20260509024610 | 63 | 262 | 4.0 | 14.0 | 0.00 | 0.00 | 0.00 | 52 | 1022.5 |
| 20260509023034 | 64 | 248 | 4.0 | 12.0 | 0.00 | 0.00 | 0.00 | 50 | 1022.4 |
| 20260509021648 | 64 | 265 | 6.0 | 13.0 | 0.00 | 0.00 | 0.00 | 49 | 1022.3 |
| 20260509020031 | 65 | 270 | 5.0 | 12.0 | 0.00 | 0.00 | 0.00 | 48 | 1022.3 |
| 20260509014532 | 66 | 261 | 6.0 | 17.0 | 0.00 | 0.00 | 0.00 | 47 | 1022.2 |
| 20260509013129 | 66 | 257 | 8.0 | 21.0 | 0.00 | 0.00 | 0.00 | 46 | 1022.2 |
| 20260509011537 | 67 | 256 | 6.0 | 16.0 | 0.00 | 0.00 | 0.00 | 45 | 1022.1 |
| 20260509010030 | 67 | 262 | 7.0 | 18.0 | 0.00 | 0.00 | 0.00 | 44 | 1022.0 |
| 20260509004532 | 67 | 261 | 7.0 | 17.0 | 0.00 | 0.00 | 0.00 | 43 | 1021.9 |
| 20260509001541 | 67 | 268 | 8.0 | 18.0 | 0.00 | 0.00 | 0.00 | 42 | 1021.8 |
| 20260509001535 | 67 | 267 | 10.0 | 24.0 | 0.00 | 0.00 | 0.00 | 40 | 1021.6 |
| 20260508234535 | 66 | 266 | 12.0 | 24.0 | 0.00 | 0.00 | 0.00 | 38 | 1021.5 |
| 20260508230034 | 66 | 273 | 12.0 | 24.0 | 0.00 | 0.00 | 0.00 | 41 | 1021.6 |
| 20260508224536 | 65 | 273 | 13.0 | 28.0 | 0.00 | 0.00 | 0.00 | 44 | 1021.6 |
| 20260508221533 | 64 | 270 | 14.0 | 28.0 | 0.00 | 0.00 | 0.00 | 46 | 1021.4 |
| 20260508214535 | 64 | 268 | 13.0 | 23.0 | 0.00 | 0.00 | 0.00 | 47 | 1021.5 |
| 20260508213110 | 64 | 268 | 13.0 | 26.0 | 0.00 | 0.00 | 0.00 | 48 | 1021.5 |
| 20260508212115 | 0 | 0 | 0.0 | 0.0 | 0.00 | 0.00 | 0.00 | 100 | |
| 20260508124610 | 56 | 272 | 11.0 | 23.0 | 0.00 | 0.00 | 0.00 | 62 | 1019.1 |
| 20260508123037 | 56 | 271 | 9.0 | 18.0 | 0.00 | 0.00 | 0.00 | 61 | 1019.2 |
| 20260508121534 | 56 | 269 | 8.0 | 19.0 | 0.00 | 0.00 | 0.00 | 59 | 1019.1 |
| 20260508120037 | 57 | 268 | 10.0 | 21.0 | 0.00 | 0.00 | 0.00 | 58 | 1019.0 |
| 20260508114533 | 57 | 269 | 11.0 | 23.0 | 0.00 | 0.00 | 0.00 | 57 | 1019.0 |
| 20260508113033 | 56 | 268 | 8.0 | 17.0 | 0.00 | 0.00 | 0.00 | 56 | 1018.9 |
| 20260508111534 | 55 | 285 | 4.0 | 12.0 | 0.00 | 0.00 | 0.00 | 57 | 1018.8 |
| 20260508110036 | 57 | 288 | 4.0 | 8.0 | 0.00 | 0.00 | 0.00 | 54 | 1018.8 |
| 20260508103032 | 55 | 271 | 5.0 | 11.0 | 0.00 | 0.00 | 0.00 | 59 | 1018.8 |
| 20260508100032 | 51 | 165 | 1.0 | 3.0 | 0.00 | 0.00 | 0.00 | 61 | 1018.7 |
| 20260508093034 | 53 | 311 | 2.0 | 7.0 | 0.00 | 0.00 | 0.00 | 58 | 1018.6 |
| 20260508091530 | 55 | 309 | 3.0 | 8.0 | 0.00 | 0.00 | 0.00 | 54 | 1018.5 |
| 20260508090032 | 57 | 297 | 2.0 | 6.0 | 0.00 | 0.00 | 0.00 | 50 | 1018.5 |
| 20260508084534 | 58 | 280 | 3.0 | 10.0 | 0.00 | 0.00 | 0.00 | 47 | 1018.5 |
| 20260508083030 | 58 | 278 | 4.0 | 10.0 | 0.00 | 0.00 | 0.00 | 47 | 1018.4 |
| 20260508081531 | 58 | 281 | 4.0 | 8.0 | 0.00 | 0.00 | 0.00 | 46 | 1018.4 |
| 20260508080141 | 58 | 282 | 4.0 | 10.0 | 0.00 | 0.00 | 0.00 | 44 | 1018.4 |
| 20260508074536 | 59 | 273 | 5.0 | 8.0 | 0.00 | 0.00 | 0.00 | 43 | 1018.5 |
| 20260508071536 | 60 | 276 | 6.0 | 11.0 | 0.00 | 0.00 | 0.00 | 42 | 1018.3 |